Location: Eaglesham
(55.7833°N, 117.9000°W)
Time: 10:06:11
(UTC+00:00)

ISS - Pass Details

Date: 30 November 2021
Orbit: 413 x 422 km, 51.6° (Epoch: 23 January)

Event Time Altitude Azimuth Distance (km) Brightness Sun altitude
Rises 01:17:05 0° 258° (WSW) 2,384 2.0 -14.6°
Reaches altitude 10° 01:19:15 10° 251° (WSW) 1,517 0.5 -14.9°
Maximum altitude 01:22:29 41° 179° (S) 628 -2.8 -15.4°
Enters shadow 01:24:06 24° 123° (ESE) 930 -2.4 -15.6°
